Location: Bucquoy
(50.1391°N, 2.7097°E)
Time: 04:48:06
(UTC+00:00)

Daily predictions for brighter satellites

Satellite Brightness Start Highest point End
(mag) Time Altitude Azimuth Time Altitude Azimuth Time Altitude Azimuth
SeaSat 1 2.4 00:02:08 10° NNE 00:07:07 86° WNW 00:08:07 58° SW
Cosmos 1378 4.3 00:08:51 33° E 00:08:51 33° E 00:11:56 10° NNE
ATLAS 2AS CENTAUR R/B 3.0 00:03:05 10° NW 00:10:09 51° WSW 00:11:46 43° SSW
Cosmos 1943 Rocket 2.1 00:09:25 55° SSW 00:10:43 82° ESE 00:16:22 10° NNE
USA 215 3.6 00:10:10 40° SSW 00:10:45 41° SW 00:16:53 10° WNW
Cosmos 1356 Rocket 4.2 00:07:09 10° N 00:11:15 45° ENE 00:11:59 41° ESE
Cosmos 2242 Rocket 3.4 00:11:36 74° SE 00:11:52 78° E 00:16:19 10° NNE
Cosmos 1461 4.0 00:15:16 37° ESE 00:15:16 37° ESE 00:19:21 10° NE
Cosmos 2181 Rocket 4.5 00:14:49 35° SW 00:17:03 50° WNW 00:23:02 10° N
EO 1 Del DPAF 3.2 00:15:25 10° NNE 00:18:53 73° NE 00:18:53 73° NE
Cosmos 1937 Rocket 3.7 00:18:25 46° WSW 00:19:44 63° WNW 00:24:53 10° NNE
EO 1 Delta rocket 3.9 00:22:19 56° SSE 00:23:23 85° ENE 00:28:53 10° N
Cosmos 1048 Rocket 4.1 00:19:13 10° NNW 00:24:36 76° ENE 00:26:21 43° SE
SL-16 R/B 3.7 00:21:04 13° SE 00:26:11 39° ENE 00:31:56 10° N
Cosmos 2084 Rocket 3.6 00:24:04 10° NW 00:27:54 60° W 00:27:54 60° W
Cosmos 2297 4.0 00:26:28 37° WSW 00:28:36 61° WNW 00:34:15 10° NNE
Okean 1-7 2.8 00:29:25 74° WSW 00:29:39 78° WNW 00:33:57 10° N
YAOGAN 11 4.0 00:32:59 64° SE 00:33:36 80° ENE 00:37:55 10° NNW
Gbstr 26 Del rocket 3.7 00:28:59 10° WNW 00:35:50 75° SSW 00:41:18 10° ESE
Okean 2 Rocket 3.9 00:31:38 10° N 00:35:53 45° ENE 00:37:09 35° ESE
Cosmos 1821 Rocket 4.1 00:32:00 10° NNW 00:38:21 67° W 00:40:28 43° SSW
Cosmos 2344 4.3 00:31:15 10° NW 00:40:14 84° NE 00:52:48 10° SE
Helios 1A 2.8 00:41:18 72° SSE 00:41:43 88° ENE 00:45:55 10° NNW
Okean 3 3.4 00:41:55 69° SSE 00:42:19 78° E 00:46:37 10° NNE
Cosmos 1656 Rocket 3.9 00:42:15 43° SSE 00:43:33 54° ESE 00:48:55 10° NE
Helios 1B rocket 4.1 00:42:09 10° NE 00:45:30 23° E 00:46:30 21° ESE
ISS -1.4 00:48:19 17° E 00:48:19 17° E 00:49:20 10° E
Cosmos 2150 Rocket 4.2 00:45:19 46° SSE 00:46:41 62° ESE 00:51:57 10° NNE
Cosmos 1934 Rocket 3.9 00:43:52 10° N 00:50:07 89° ENE 00:52:35 39° S
Cosmos 44 4.5 00:45:41 10° NW 00:50:00 31° WSW 00:50:00 31° WSW
SJ 16-02 4.2 00:50:13 10° NW 00:50:54 10° NW 00:51:35 10° NNW
RESURS DK-1 2.3 00:47:40 10° NNW 00:51:52 83° ENE 00:52:34 60° SE
Cosmos 1867 4.1 00:52:08 40° SSE 00:53:21 46° ESE 00:58:33 10° NE
Meteor 1-12 Rocket 4.4 00:48:51 10° NNW 00:54:44 63° W 00:56:29 44° SSW
SL-24 R/B 4.3 00:54:09 53° SSW 00:55:07 67° WSW 00:59:35 10° NNW
CZ-2D R/B 3.1 00:50:58 10° NNE 00:56:02 38° E 00:58:21 26° SE
COSMOS 2487 4.4 00:56:19 10° N 00:59:14 26° ENE 01:01:12 16° ESE
Cosmos 1300 Rocket 3.4 00:56:57 10° NNW 01:01:24 84° W 01:02:12 60° S
Cosmos 1535 Rocket 4.4 00:55:26 10° N 01:01:39 84° W 01:04:22 37° S
ATLAS CENTAUR R/B 2.7 01:02:36 24° ESE 01:02:36 24° ESE 01:05:32 10° ENE
ERBS 4.2 01:03:00 10° WNW 01:04:15 21° WNW 01:04:15 21° WNW
SL-27 R/B 2.8 01:03:48 10° NNW 01:06:28 52° NW 01:06:28 52° NW
Cosmos 2221 Rocket 3.7 01:08:51 49° SSE 01:10:00 74° E 01:14:36 10° NNE
Meteor 1-13 Rocket 4.3 01:09:25 40° SW 01:11:19 63° WNW 01:16:51 10° N
USA 281 3.2 01:09:03 34° S 01:11:56 61° WSW 01:18:26 10° NNW
USA 81 4.0 01:07:34 10° N 01:12:54 90° E 01:14:57 39° S
Nadezhda 3 Rocket 4.5 01:13:48 32° SW 01:16:21 49° WNW 01:22:23 10° N
CZ-4 R/B 4.0 01:16:33 10° N 01:21:27 64° WNW 01:23:00 41° SW
Cosmos 1805 3.5 01:20:17 10° NNW 01:24:04 48° W 01:24:13 47° WSW
MOZ.5/SAFIR/RUBIN 5/SL-8 3.9 01:24:37 45° SW 01:25:39 55° W 01:30:13 10° NNW
Cosmos 1766 3.2 01:21:52 10° NNW 01:25:49 67° W 01:26:23 58° SW
Cosmos 1125 Rocket 3.4 01:24:53 41° SSW 01:26:48 82° WNW 01:32:04 10° NNE
Cosmos 1400 Rocket 3.1 01:25:05 10° N 01:29:13 66° ENE 01:31:01 32° SSE
Resurs 1-4 Rocket 2.2 01:25:04 10° NNE 01:30:21 71° ESE 01:32:45 33° S
ADEOS II 3.2 01:27:53 10° NNE 01:32:45 37° E 01:36:09 18° SSE
Cosmos 2369 Rocket 2.8 01:31:09 27° WSW 01:33:54 48° NW 01:39:23 10° NNE
Meteor 1-23 Rocket 4.4 01:35:38 34° SSW 01:38:11 67° WNW 01:44:01 10° N
Cosmos 1733 3.8 01:36:04 10° NNW 01:39:36 38° W 01:39:44 38° W
CZ-3B R/B 4.3 01:28:48 22° SW 01:42:38 60° SSE 01:48:07 10° ENE
Cosmos 1605 Rocket 4.1 01:37:09 10° NNW 01:43:14 60° W 01:46:26 29° SSW
SeaSat 1 4.4 01:40:25 10° N 01:44:03 21° NW 01:47:41 10° W
Gblst 52 Del rocket 4.4 01:38:02 10° WNW 01:44:04 48° SW 01:49:29 10° SE
ARGOS Delta rocket 4.4 01:40:32 10° NNE 01:44:52 47° E 01:47:33 22° SSE
Lacrosse 5 3.7 01:45:07 16° SSE 01:47:07 20° SE 01:50:43 10° E
Cosmos 1470 2.8 01:44:41 10° N 01:48:36 78° E 01:50:26 30° SSE
Cosmos 1378 Rocket 3.4 01:51:11 36° S 01:52:57 88° WNW 01:57:18 10° N
Cosmos 1461 4.0 01:51:36 23° W 01:54:08 43° NW 01:58:33 10° NNE
Cosmos 1459 Rocket 4.3 01:48:14 10° N 01:54:34 69° ENE 02:00:46 10° SSE
NOSS 2-1 (E) 4.1 01:49:44 10° NW 01:54:36 84° SW 02:01:32 10° SE
Cosmos 1943 Rocket 3.9 01:50:55 11° W 01:55:08 24° NW 01:59:41 10° NNE
BREEZE-M DEB (TANK) 4.5 01:53:33 19° SSE 01:56:37 31° ESE 02:07:56 10° ENE
Okean 1 Rocket 3.0 01:53:45 10° NNW 01:58:11 73° W 02:00:21 29° S
Cosmos 1269 Rocket 4.0 01:53:03 10° NNW 01:58:17 61° WSW 02:01:40 22° S
Cosmos 1607 4.2 01:55:38 25° SW 01:59:37 71° NW 02:06:08 10° NE
IRS-1D 4.2 01:55:11 10° NNE 02:00:22 52° E 02:04:21 17° S
Cosmos 2173 Rocket 4.1 01:54:13 10° N 02:00:23 76° E 02:06:34 10° SSE
Cosmos 1726 2.0 01:59:08 10° NNW 02:02:53 83° W 02:04:34 31° S
Aureole 2 3.9 02:00:13 10° NNW 02:03:09 68° WSW 02:03:37 54° SSW
Cosmos 44 Rocket 3.4 01:58:39 10° NW 02:03:52 66° SW 02:08:56 10° SSE
COSMOS 2455 3.3 01:58:53 10° NNW 02:04:55 65° NE 02:10:53 10° SE
Cosmos 1802 Rocket 4.2 02:00:57 10° N 02:07:08 69° ENE 02:13:13 10° SSE
Meteor 2-20 4.5 02:04:50 25° SSW 02:08:38 72° WNW 02:14:50 10° N
SL-16 R/B 2.9 02:06:09 24° SSW 02:09:43 46° W 02:15:45 10° NNW
Meteor 1-28 Rocket 3.4 02:07:32 16° SSE 02:10:27 70° ENE 02:14:08 10° N
Cosmos 1842 3.6 02:10:36 32° SW 02:11:56 47° WNW 02:15:42 10° N
Meteor 1-29 2.8 02:08:47 10° NNE 02:12:10 79° WNW 02:13:24 36° SSW
Okean 2 Rocket 4.5 02:10:20 10° NW 02:13:40 21° W 02:14:31 20° WSW
NPP 3.7 02:09:24 10° N 02:14:47 66° WNW 02:18:04 24° SW
Cosmos 2100 Rocket 4.0 02:09:32 10° NNW 02:15:49 81° W 02:21:53 11° S
Cosmos 1674 Rocket 4.1 02:14:49 27° SW 02:16:47 45° WNW 02:21:05 10° N
Cosmos 2227 Rocket 3.2 02:11:41 10° NNW 02:17:13 50° NE 02:22:41 10° SE
GP-B 4.4 02:14:40 10° NNE 02:18:52 39° E 02:23:02 10° SSE
Cosmos 1953 3.1 02:16:17 10° N 02:20:11 51° ENE 02:24:04 10° SSE
Helios 1B rocket 3.2 02:17:01 10° N 02:20:53 40° WNW 02:22:49 24° WSW
Okean 2 3.6 02:19:01 28° SW 02:21:01 57° WNW 02:25:09 10° N
Landsat 4 3.8 02:17:45 10° N 02:21:28 61° WNW 02:23:14 28° SW
Cosmos 2297 Rocket 2.6 02:15:49 10° NNW 02:21:29 66° ENE 02:27:07 10° SE
AQUA 3.9 02:16:55 10° N 02:21:39 64° WNW 02:24:31 23° SSW
Gbstr 26 Del rocket 4.5 02:17:08 10° WNW 02:22:09 26° SW 02:26:08 11° S
ISS -3.8 02:21:16 27° WSW 02:22:58 87° NNW 02:26:21 10° ENE
DELTA 2 DEB (DPAF) 4.2 02:21:24 18° S 02:24:33 61° WSW 02:29:00 10° NNW
BREEZE-M R/B 4.4 02:21:29 14° W 02:24:53 33° SSW 02:32:19 10° SE
RESURS DK-1 4.5 02:27:26 10° WNW 02:28:26 12° W 02:28:26 12° W
Cosmos 2123 Rocket 4.4 02:23:24 10° S 02:29:28 62° E 02:35:35 10° NNE
ADEOS Rocket 3.5 02:24:16 10° S 02:31:30 79° WSW 02:39:18 10° NNW
Cosmos 1544 Rocket 4.3 02:28:58 10° N 02:33:16 55° ENE 02:37:35 10° SSE
COSMOS 2487 3.5 02:31:12 10° NW 02:34:03 25° WSW 02:34:28 24° WSW
Cosmos 371 Rocket 4.5 02:30:09 10° S 02:34:37 38° ESE 02:39:08 10° NE
Spot 1 4.2 02:30:28 10° SSE 02:34:57 79° WSW 02:39:47 10° NNW
Cosmos 1025 Rocket 4.1 02:31:55 10° SSE 02:35:59 42° E 02:40:07 10° NNE
CZ-2D R/B 2.9 02:31:04 10° N 02:36:06 39° WNW 02:39:41 18° WSW
Cosmos 1867 4.4 02:32:47 15° WSW 02:37:01 43° NW 02:42:16 10° NNE
[s.n.48335] 3.7 02:41:23 24° S 02:41:23 24° S 02:42:56 10° SSE
[s.n.48334] 3.7 02:41:26 24° S 02:41:26 24° S 02:42:59 10° SSE
[s.n.48333] 3.9 02:41:41 21° S 02:41:41 21° S 02:43:00 10° SSE
[s.n.48332] 3.7 02:41:30 24° S 02:41:30 24° S 02:43:03 10° SSE
[s.n.48331] 3.7 02:41:39 23° S 02:41:39 23° S 02:43:12 10° SSE
[s.n.48330] 3.9 02:41:54 21° S 02:41:54 21° S 02:43:14 10° SSE
[s.n.48329] 3.7 02:41:48 23° S 02:41:48 23° S 02:43:20 10° SSE
ATLAS CENTAUR R/B 1.9 02:38:44 19° WSW 02:41:04 42° NW 02:44:47 10° NNE
[s.n.48328] 3.9 02:42:00 21° S 02:42:00 21° S 02:43:21 10° SSE
[s.n.48327] 3.9 02:42:04 21° S 02:42:04 21° S 02:43:24 10° SSE
[s.n.48326] 3.8 02:42:00 23° S 02:42:00 23° S 02:43:31 10° SSE
ARIANE 5 R/B 3.4 02:38:26 10° NNE 02:43:28 47° E 02:48:23 10° S
[s.n.48324] 3.7 02:44:12 23° S 02:44:12 23° S 02:45:46 10° SSE
[s.n.48325] 3.6 02:44:48 24° S 02:44:48 24° S 02:46:31 10° SSE
[s.n.48323] 3.8 02:45:05 22° S 02:45:05 22° S 02:46:36 10° SSE
[s.n.48321] 3.8 02:45:16 22° S 02:45:16 22° S 02:46:47 10° SSE
[s.n.48320] 3.8 02:45:17 23° S 02:45:17 23° S 02:46:50 10° SSE
Cosmos 1455 Rocket 2.9 02:40:18 10° NNW 02:44:38 74° W 02:48:56 10° S
[s.n.48322] 3.6 02:45:11 24° SSW 02:45:11 24° SSW 02:46:55 10° SSE
[s.n.48318] 3.8 02:45:26 22° S 02:45:26 22° S 02:46:55 10° SSE
[s.n.48319] 3.8 02:45:26 22° S 02:45:26 22° S 02:46:55 10° SSE
[s.n.48317] 3.8 02:45:35 22° S 02:45:35 22° S 02:47:04 10° SSE
[s.n.48316] 3.8 02:45:37 22° S 02:45:37 22° S 02:47:07 10° SSE
[s.n.48315] 3.8 02:45:43 22° S 02:45:43 22° S 02:47:13 10° SSE
[s.n.48314] 3.8 02:45:46 22° S 02:45:46 22° S 02:47:18 10° SSE
[s.n.48313] 3.8 02:45:52 22° S 02:45:52 22° S 02:47:22 10° SSE
[s.n.48312] 3.8 02:45:55 22° S 02:45:55 22° S 02:47:26 10° SSE
[s.n.48311] 3.8 02:46:00 22° S 02:46:00 22° S 02:47:30 10° SSE
[s.n.48310] 3.6 02:45:51 24° SSW 02:45:51 24° SSW 02:47:36 10° SSE
[s.n.48309] 3.6 02:45:55 24° SSW 02:45:55 24° SSW 02:47:41 10° SSE
[s.n.48308] 3.6 02:45:58 24° SSW 02:45:58 24° SSW 02:47:45 10° SSE
[s.n.48307] 3.8 02:46:14 22° S 02:46:14 22° S 02:47:47 10° SSE
[s.n.48306] 3.7 02:46:14 23° S 02:46:14 23° S 02:47:51 10° SSE
[s.n.48305] 3.7 02:46:19 23° S 02:46:19 23° S 02:47:56 10° SSE
[s.n.48304] 3.8 02:46:25 22° S 02:46:25 22° S 02:47:59 10° SSE
[s.n.48303] 3.7 02:46:27 23° S 02:46:27 23° S 02:48:05 10° SSE
[s.n.48302] 3.7 02:46:30 23° S 02:46:30 23° S 02:48:08 10° SSE
[s.n.48301] 3.8 02:46:39 22° S 02:46:39 22° S 02:48:12 10° SSE
[s.n.48300] 3.8 02:46:41 22° S 02:46:41 22° S 02:48:14 10° SSE
[s.n.48299] 3.8 02:46:47 22° S 02:46:47 22° S 02:48:22 10° SSE
[s.n.48298] 3.7 02:46:46 23° SSW 02:46:46 23° SSW 02:48:26 10° SSE
[s.n.48297] 3.6 02:46:44 24° SSW 02:46:44 24° SSW 02:48:33 10° SSE
[s.n.48296] 3.6 02:46:48 24° SSW 02:46:48 24° SSW 02:48:37 10° SSE
[s.n.48295] 3.7 02:47:03 23° S 02:47:03 23° S 02:48:39 10° SSE
[s.n.48294] 3.7 02:47:07 23° S 02:47:07 23° S 02:48:44 10° SSE
[s.n.48293] 3.7 02:47:12 22° S 02:47:12 22° S 02:48:47 10° SSE
[s.n.48292] 3.6 02:47:00 24° SSW 02:47:00 24° SSW 02:48:54 10° SSE
[s.n.48291] 3.7 02:47:20 22° S 02:47:20 22° S 02:48:56 10° SSE
[s.n.48290] 3.7 02:47:22 22° S 02:47:22 22° S 02:48:59 10° SSE
[s.n.48289] 3.7 02:47:28 23° S 02:47:28 23° S 02:49:05 10° SSE
[s.n.48288] 3.7 02:47:32 23° S 02:47:32 23° S 02:49:09 10° SSE
[s.n.48286] 3.7 02:47:33 23° S 02:47:33 23° S 02:49:10 10° SSE
[s.n.48287] 3.7 02:47:36 22° S 02:47:36 22° S 02:49:13 10° SSE
[s.n.48285] 3.7 02:47:45 23° SSW 02:47:45 23° SSW 02:49:22 10° SSE
[s.n.48284] 3.7 02:47:47 23° SSW 02:47:47 23° SSW 02:49:25 10° SSE
[s.n.48283] 3.7 02:47:53 23° SSW 02:47:53 23° SSW 02:49:31 10° SSE
[s.n.48282] 3.7 02:47:55 23° SSW 02:47:55 23° SSW 02:49:36 10° SSE
[s.n.48281] 3.6 02:47:49 24° SSW 02:47:49 24° SSW 02:49:44 10° SSE
[s.n.48280] 3.7 02:48:06 23° SSW 02:48:06 23° SSW 02:49:45 10° SSE
[s.n.48279] 3.7 02:48:09 23° SSW 02:48:09 23° SSW 02:49:49 10° SSE
[s.n.48278] 3.7 02:48:12 23° SSW 02:48:12 23° SSW 02:49:53 10° SSE
[s.n.48277] 3.7 02:48:18 23° SSW 02:48:18 23° SSW 02:49:57 10° SSE
[s.n.48276] 3.6 02:48:16 24° SSW 02:48:16 24° SSW 02:50:06 10° SSE
Cosmos 1758 4.1 02:46:20 10° NNW 02:50:04 35° W 02:52:44 17° SSW
CZ-4C R/B 3.7 02:45:56 10° S 02:50:15 54° W 02:54:28 10° NNW
Cosmos 2219 3.2 02:46:48 10° NNW 02:52:32 88° WSW 02:58:16 10° SSE
In-Cosmos 22 4.2 02:48:03 13° SSW 02:53:15 77° WNW 02:58:51 10° N
KORONAS-FOTON 3.8 02:52:13 12° S 02:55:48 89° WNW 02:59:45 10° N
Cosmos 1140 Rocket 4.4 02:52:57 10° NNW 02:58:03 52° ENE 03:03:07 10° SE
Cosmos 1707 3.6 02:56:07 17° SW 02:58:33 34° WNW 03:02:05 10° N
Cosmos 1674 2.6 02:56:39 12° SSW 03:00:09 79° W 03:04:01 10° N
Cosmos 1315 Rocket 3.4 02:57:21 10° NNW 03:01:01 38° W 03:04:35 11° SSW
USA 129 2.3 03:03:33 10° SSE 03:05:58 60° ENE 03:07:59 10° N
CBERS-1 4.2 03:02:27 10° N 03:07:28 57° WNW 03:12:18 11° SW
IDEFIX/ARIANE 42P 2.6 03:03:19 10° N 03:08:34 72° WNW 03:13:48 10° SSW
Timation 2 Rocket 3.8 03:03:22 10° NW 03:09:20 70° WSW 03:15:17 10° SSE
Cosmos 2061 Rocket 4.2 03:03:16 10° NNW 03:09:24 57° W 03:15:34 10° S
Resurs 1-4 Rocket 3.6 03:05:44 10° N 03:09:41 22° WNW 03:13:37 10° WSW
Cosmos 1300 3.6 03:06:59 10° N 03:10:44 51° ENE 03:14:26 10° SSE
TSX-5 3.4 03:09:07 10° NNW 03:12:22 87° SW 03:16:05 10° SSE
ADEOS II 2.8 03:07:37 10° N 03:12:28 38° WNW 03:17:06 11° SW
Cosmos 614 Rocket 4.0 03:10:06 10° NNW 03:15:07 61° WSW 03:20:08 10° S
Cosmos 1908 3.5 03:12:07 10° NNW 03:15:50 46° W 03:19:34 10° SSW
USA 276 3.9 03:14:04 10° SSW 03:16:32 21° SSE 03:19:00 10° E
Cosmos 1725 Rocket 4.2 03:10:25 10° NNW 03:16:32 55° W 03:22:35 10° SSW
Cosmos 1975 Rocket 3.6 03:13:30 11° SW 03:17:24 41° WNW 03:21:32 10° N
Cosmos 2369 Rocket 4.4 03:16:14 10° WNW 03:19:24 15° NNW 03:22:35 10° N
Tianhe-1 2.9 03:18:36 12° SW 03:20:17 17° S 03:22:23 10° SE
BREEZE-M DEB (TANK) 3.6 03:20:23 10° SSW 03:22:25 16° SSE 03:23:59 10° ESE
Cosmos 407 Rocket 3.6 03:17:04 10° NNW 03:22:27 87° ENE 03:27:48 10° SSE
SL-14 R/B 3.5 03:21:43 10° S 03:25:35 73° E 03:29:30 10° NNE
Cosmos 1656 3.7 03:21:13 10° SSW 03:26:41 85° WNW 03:32:14 10° NNE
Spot 4 Rocket 4.4 03:22:05 10° NNE 03:27:16 69° ESE 03:32:23 10° S
Cosmos 2263 Rocket 4.0 03:22:07 10° NNW 03:27:19 36° NE 03:32:32 10° ESE
Lacrosse 5 2.0 03:24:22 10° SW 03:29:27 79° SE 03:34:34 10° ENE
SL-08 R/B 3.5 03:24:51 10° S 03:29:29 51° W 03:34:04 10° NNW
IRS-1C 4.3 03:28:22 10° N 03:33:37 59° WNW 03:38:50 10° SSW
Cosmos 2233 Rocket 4.1 03:29:50 10° NNW 03:35:58 59° W 03:42:01 10° S
Cosmos 2251 Rocket 4.2 03:32:55 10° NW 03:37:33 32° WSW 03:42:08 10° SSW
SL-24 R/B 4.4 03:35:26 10° SSE 03:39:02 59° ENE 03:42:52 10° N
MSX 4.1 03:34:25 10° N 03:40:06 59° WNW 03:45:45 10° SW
CZ-4B R/B 3.7 03:36:19 10° N 03:41:05 56° WNW 03:45:58 10° SW
Cosmos 2056 Rocket 4.4 03:36:32 10° S 03:41:26 49° ESE 03:46:22 10° NNE
